This is the latest recevied weather packets stored in our database for station/object VE8SKI. If no packets are shown the sender has not sent any weather packets the latest 10 day(s).
| Time | Temp. | Humidity | Pressure | Rain* | Wind** | Luminosity | Snow |
|---|---|---|---|---|---|---|---|
| 1778098718 | 8.33° C | 42% | 1010.3 hPa | 0 mm | 2.68 m/s, 125° | - | - |
| 1778098419 | 7.78° C | 43% | 1010.3 hPa | 0 mm | 2.68 m/s, 166° | - | - |
| 1778098119 | 8.33° C | 42% | 1010.4 hPa | 0 mm | 3.58 m/s, 205° | - | - |
| 1778097820 | 8.33° C | 41% | 1010.4 hPa | 0 mm | 3.13 m/s, 176° | - | - |
| 1778097520 | 8.33° C | 42% | 1010.4 hPa | 0 mm | 2.68 m/s, 197° | - | - |
| 1778097218 | 8.33° C | 42% | 1010.5 hPa | 0 mm | 2.68 m/s, 169° | - | - |
| 1778096918 | 7.78° C | 41% | 1010.4 hPa | 0 mm | 4.02 m/s, 215° | - | - |
| 1778096645 | 8.33° C | 41% | 1010.4 hPa | 0 mm | 4.02 m/s, 91° | - | - |
| 1778096319 | 8.33° C | 41% | 1010.5 hPa | 0 mm | 3.13 m/s, 165° | - | - |
| 1778096020 | 8.33° C | 41% | 1010.4 hPa | 0 mm | 2.24 m/s, 207° | - | - |
| 1778095720 | 8.33° C | 41% | 1010.5 hPa | 0 mm | 4.02 m/s, 207° | - | - |
| 1778095418 | 8.33° C | 41% | 1010.5 hPa | 0 mm | 2.68 m/s, 149° | - | - |
| 1778095118 | 8.33° C | 41% | 1010.6 hPa | 0 mm | 2.68 m/s, 215° | - | - |
| 1778094819 | 7.78° C | 41% | 1010.6 hPa | 0 mm | 3.58 m/s, 183° | - | - |
| 1778094519 | 8.33° C | 42% | 1010.6 hPa | 0 mm | 2.24 m/s, 198° | - | - |
| 1778094220 | 7.78° C | 41% | 1010.5 hPa | 0 mm | 3.58 m/s, 194° | - | - |
| 1778093920 | 8.33° C | 41% | 1010.6 hPa | 0 mm | 3.13 m/s, 115° | - | - |
| 1778093618 | 7.78° C | 40% | 1010.6 hPa | 0 mm | 3.58 m/s, 210° | - | - |
| 1778093318 | 7.78° C | 42% | 1010.6 hPa | 0 mm | 2.68 m/s, 179° | - | - |
| 1778093019 | 7.78° C | 41% | 1010.6 hPa | 0 mm | 4.02 m/s, 195° | - | - |
| 1778092719 | 7.78° C | 41% | 1010.7 hPa | 0 mm | 4.02 m/s, 188° | - | - |
| 1778092419 | 7.78° C | 42% | 1010.7 hPa | 0 mm | 4.02 m/s, 257° | - | - |
| 1778092120 | 7.78° C | 41% | 1010.7 hPa | 0 mm | 4.02 m/s, 139° | - | - |
| 1778091818 | 7.78° C | 42% | 1010.8 hPa | 0 mm | 3.13 m/s, 229° | - | - |
| 1778091518 | 7.78° C | 41% | 1010.6 hPa | 0 mm | 4.47 m/s, 203° | - | - |
* Rain latest hour (hover to see other rain measurements)
** Current wind speed in m/s (hover to see current wind gust speed)